Weather History for Lancaster, CA

Change the Weather History Date:

Tuesday, November 1, 2011

  Actual Average Record
Temperature  
Mean Temperature 69 °F 57 °F  
Max Temperature 81 °F 73 °F 90 °F (1960)
Min Temperature 56 °F 41 °F 25 °F (1989)
Degree Days  
Heating Degree Days 0    
Month to date heating degree days 0  
Since 1 July heating degree days 120  
Cooling Degree Days 4    
Month to date cooling degree days 4  
Year to date cooling degree days 1755  
Growing Degree Days 20 (Base 50)    
Moisture  
Dew Point 25 °F    
Average Humidity 25    
Maximum Humidity 35    
Minimum Humidity 14    
Precipitation  
Precipitation 0.00 in 0.02 in 0.42 in (2008)
Month to date precipitation 0.00 0.02  
Year to date precipitation 4.07 5.71  
Since 1 July precipitation 0.42 0.80  
Snow  
Snow 0.00 in - 0.00 in ()
Month to date snowfall 0.0  
Since 1 July snowfall 0.0  
Since 1 September snowfall 0.0  
Snow Depth -    
Sea Level Pressure  
Sea Level Pressure 29.97 in    
Wind  
Wind Speed 13 mph (WNW)    
Max Wind Speed 25 mph    
Max Gust Speed 33 mph    
Visibility 10 miles    
Events      
T = Trace of Precipitation, MM = Missing Value Source: NWS Daily Summary

Daily Weather History Graph

Daily Weather History Graph

Search for Another Location

Airport:

Trip Planner

Search our weather history database for the weather conditions in past years. The results will help you decide how hot, cold, wet, or windy it might be!

Date:

Astronomy

Nov. 01, 2011 Rise Set
Actual Time 7:13 AM PDT 5:59 PM PDT
Civil Twilight 6:47 AM PDT 6:25 PM PDT
Nautical Twilight 6:17 AM PDT 6:54 PM PDT
Astronomical Twilight 5:47 AM PDT 7:24 PM PDT
Moon 1:00 PM PDT (11/1) 11:48 PM PDT (11/1)
Length of Visible Light 11h 37m
Length of Day
10h 45m
Waxing Crescent, 41% of the Moon is Illuminated
Nov 1
Waxing Crescent
Nov 2
First Quarter
Nov 10
Full
Nov 18
Last Quarter
Nov 24
New

Hourly Weather History & Observations

Time (PDT) Temp. Dew Point Humidity Pressure Visibility Wind Dir Wind Speed Gust Speed Precip Events Conditions
12:56 AM 64.9 °F 21.0 °F 19% 29.93 in 10.0 mi WSW 5.8 mph - N/A   Clear
1:56 AM 63.0 °F 24.1 °F 23% 29.92 in 10.0 mi West 11.5 mph - N/A   Clear
2:56 AM 64.0 °F 26.1 °F 24% 29.91 in 10.0 mi West 16.1 mph - N/A   Clear
3:56 AM 64.0 °F 30.9 °F 29% 29.90 in 10.0 mi West 18.4 mph - N/A   Clear
4:56 AM 61.0 °F 32.0 °F 34% 29.91 in 10.0 mi West 9.2 mph - N/A   Clear
5:56 AM 64.0 °F 30.9 °F 29% 29.91 in 10.0 mi WNW 8.1 mph - N/A   Clear
6:56 AM 59.0 °F 28.9 °F 32% 29.92 in 10.0 mi West 6.9 mph - N/A   Clear
7:56 AM 59.0 °F 30.0 °F 33% 29.95 in 10.0 mi SSE 3.5 mph - N/A   Clear
8:56 AM 69.1 °F 32.0 °F 25% 29.94 in 10.0 mi WNW 8.1 mph - N/A   Clear
9:56 AM 71.1 °F 35.1 °F 27% 29.95 in 10.0 mi WNW 21.9 mph 29.9 mph N/A   Clear
10:56 AM 71.1 °F 37.9 °F 30% 29.95 in 10.0 mi West 25.3 mph 32.2 mph N/A   Clear
11:56 AM 72.0 °F 37.9 °F 29% 29.96 in 10.0 mi West 23.0 mph 29.9 mph N/A   Clear
12:56 PM 75.9 °F 37.0 °F 24% 29.93 in 10.0 mi West 19.6 mph 29.9 mph N/A   Clear
1:56 PM 79.0 °F 33.1 °F 19% 29.90 in 10.0 mi West 20.7 mph 25.3 mph N/A   Clear
2:56 PM 78.1 °F 28.9 °F 17% 29.91 in 10.0 mi Variable 6.9 mph - N/A   Clear
3:56 PM 81.0 °F 27.0 °F 14% 29.91 in 10.0 mi NNE 8.1 mph - N/A   Clear
4:56 PM 79.0 °F 23.0 °F 13% 29.93 in 10.0 mi North 13.8 mph - N/A   Clear
5:56 PM 73.0 °F 19.9 °F 14% 29.96 in 10.0 mi ENE 10.4 mph - N/A   Clear
6:56 PM 68.0 °F 23.0 °F 18% 30.01 in 10.0 mi ENE 13.8 mph - N/A   Clear
7:56 PM 66.0 °F 21.0 °F 18% 30.05 in 10.0 mi ENE 13.8 mph - N/A   Clear
8:56 PM 62.1 °F 18.0 °F 18% 30.08 in 10.0 mi East 8.1 mph - N/A   Clear
9:56 PM 62.1 °F 3.9 °F 10% 30.12 in 10.0 mi East 15.0 mph 20.7 mph N/A   Clear
10:56 PM 59.0 °F 1.9 °F 10% 30.14 in 10.0 mi East 11.5 mph - N/A   Clear
11:56 PM 55.0 °F 3.0 °F 12% 30.16 in 10.0 mi ESE 10.4 mph - N/A   Clear